Weather in Brescia

Italy     45°32′32″N   10°12′33″E
temp.,
°C
wind,
m/s
gust,
m/s
humid.,
%
clouds,
%
prec.,
mm/h
press.,
hPa
HPBL,
m
8 march, mon
mon801:00+4nne11700 0.0 102024
04:00+4ene11740 0.0 101831
07:00+3ne11770 0.0 101831
10:00+8se22600 0.0 1017507
13:00+10se22520 0.0 1016988
16:00+10ese33540 0.0 10151031
19:00+7ene24640 0.0 1016222
22:00+6ene23700 0.0 1018129
9 march, tue
tue901:00+5ne12760 0.0 101840
04:00+4n11780 0.0 101722
07:00+4nne11790 0.0 101822
10:00+9sse12590 0.0 1017621
13:00+11sse22490 0.0 10161222
16:00+11wsw114969 0.0 10141329
19:00+8e016184 0.0 101666
22:00+7nne017144 0.0 101926
10 march, wed
wed1001:00+6nne117322 0.0 101923
04:00+5ne127424 0.0 102041
07:00+5ene117447 0.0 102189
10:00+9se225619 0.0 1021571
13:00+12ssw21519 0.0 10201093
16:00+12sw22500 0.0 10191206
19:00+8w11644 0.0 102134
22:00+7nne117070 0.0 102322
11 march, thu
thu1101:00+6ne117267 0.0 102222
04:00+6n117066 0.0 102222
07:00+6nne117183 0.0 102122
10:00+9sw2259100 0.0 1021342
13:00+12w3557100 0.0 1020699
16:00+13w3453100 0.0 1018754
19:00+10wnw2366100 0.0 101884
22:00+9nw2266100 0.0 101868
12 march, fri
fri1201:00+9nnw2266100 0.0 101663
04:00+9nw1265100 0.0 101525
07:00+9n0168100 0.0 101523
10:00+9ese2470100 0.0 1015265
13:00+9e2483100 0.3 1014247
16:00+8ene3588100 0.8 1012225
19:00+9ene238594 1.4 1012136
22:00+9se008898 1.5 101328